SGP LSZR-LSZF

Flight info

Callsign SGP
Flight time N/A
Altitude 8000
Route AMIKI
Aircraft DA42/L-SBDGRY/S

Departure

Time 2026-04-25 17:14
Airport Sankt Gallen Altenrhein Airport (LSZR)

Arrival

Time N/A
Airport Birrfeld Airfield (LSZF)
Time Latitude Longitude Altitude Speed Heading
2026-04-25 17:05 47.48769 9.55366 1310 ft 0 kts 20°
2026-04-25 17:10 47.48741 9.55356 1310 ft 10 kts 194°
2026-04-25 17:11 47.48663 9.55339 1310 ft 12 kts 189°
2026-04-25 17:11 47.48588 9.55336 1311 ft 9 kts 147°
2026-04-25 17:11 47.48579 9.55368 1311 ft 0 kts 96°
2026-04-25 17:12 47.48576 9.55406 1311 ft 20 kts 99°
2026-04-25 17:13 47.48527 9.55871 1312 ft 68 kts 98°
2026-04-25 17:13 47.48473 9.56391 1378 ft 80 kts 98°
2026-04-25 17:13 47.48367 9.57446 1679 ft 78 kts 99°
2026-04-25 17:13 47.48281 9.58241 1869 ft 80 kts 97°
2026-04-25 17:14 47.48205 9.59052 2074 ft 81 kts 97°
2026-04-25 17:14 47.47967 9.59793 2290 ft 83 kts 139°
2026-04-25 17:14 47.47424 9.59950 2475 ft 87 kts 205°
2026-04-25 17:14 47.47063 9.59273 2730 ft 81 kts 238°
2026-04-25 17:15 47.46724 9.58592 2932 ft 84 kts 237°
2026-04-25 17:15 47.46414 9.57908 3195 ft 80 kts 239°
2026-04-25 17:15 47.46114 9.57207 3417 ft 82 kts 235°
2026-04-25 17:15 47.45768 9.56537 3680 ft 81 kts 237°
2026-04-25 17:16 47.45508 9.55818 3945 ft 78 kts 246°
2026-04-25 17:16 47.45215 9.55139 4151 ft 81 kts 235°
2026-04-25 17:16 47.44889 9.54453 4397 ft 81 kts 237°
2026-04-25 17:16 47.44578 9.53734 4601 ft 82 kts 240°
2026-04-25 17:17 47.44265 9.53018 4861 ft 84 kts 241°
2026-04-25 17:17 47.43931 9.52317 5088 ft 86 kts 236°
2026-04-25 17:17 47.43600 9.51587 5317 ft 85 kts 242°
2026-04-25 17:17 47.43289 9.50849 5552 ft 85 kts 239°
2026-04-25 17:18 47.42972 9.50138 5763 ft 85 kts 240°
2026-04-25 17:18 47.42665 9.49396 5959 ft 91 kts 243°
2026-04-25 17:18 47.42341 9.48512 6065 ft 104 kts 244°
2026-04-25 17:18 47.41989 9.47522 6006 ft 112 kts 245°
2026-04-25 17:19 47.41648 9.46509 5967 ft 115 kts 246°
2026-04-25 17:19 47.41324 9.45466 6019 ft 108 kts 249°
2026-04-25 17:19 47.40974 9.44509 6041 ft 107 kts 237°
2026-04-25 17:19 47.40536 9.43608 6041 ft 108 kts 238°
2026-04-25 17:20 47.40251 9.42994 6059 ft 106 kts 238°
2026-04-25 17:20 47.39708 9.41757 6029 ft 110 kts 239°
2026-04-25 17:20 47.39283 9.40807 6017 ft 112 kts 238°
2026-04-25 17:20 47.38868 9.39848 6017 ft 112 kts 241°
2026-04-25 17:21 47.38472 9.38845 6013 ft 111 kts 243°
2026-04-25 17:21 47.38092 9.37873 5955 ft 107 kts 241°
2026-04-25 17:21 47.37720 9.36904 5938 ft 109 kts 243°
2026-04-25 17:21 47.37368 9.35917 5962 ft 109 kts 245°
2026-04-25 17:22 47.37021 9.34912 5931 ft 111 kts 244°
2026-04-25 17:22 47.36764 9.34269 5948 ft 110 kts 241°
2026-04-25 17:22 47.36225 9.32978 5956 ft 111 kts 240°
2026-04-25 17:22 47.35818 9.32018 5993 ft 110 kts 240°
2026-04-25 17:23 47.35412 9.31061 5996 ft 111 kts 241°
2026-04-25 17:23 47.35020 9.30096 6023 ft 111 kts 242°
2026-04-25 17:23 47.34606 9.29124 6019 ft 113 kts 241°
2026-04-25 17:23 47.34222 9.28127 6023 ft 111 kts 243°
2026-04-25 17:24 47.33851 9.27128 6055 ft 110 kts 246°
2026-04-25 17:24 47.33513 9.26104 6014 ft 113 kts 248°
2026-04-25 17:24 47.33195 9.25063 6058 ft 112 kts 246°
2026-04-25 17:24 47.32831 9.24019 5970 ft 117 kts 246°
2026-04-25 17:25 47.32610 9.23324 5954 ft 108 kts 248°
2026-04-25 17:25 47.32345 9.22420 5955 ft 109 kts 250°
2026-04-25 17:25 47.32176 9.21749 5950 ft 111 kts 255°
2026-04-25 17:26 47.32080 9.21054 5973 ft 109 kts 266°
2026-04-25 17:26 47.32101 9.20388 5910 ft 111 kts 281°
2026-04-25 17:28 47.32180 9.19646 5887 ft 109 kts 273°
2026-04-25 17:28 47.32115 9.18567 5951 ft 100 kts 270°
2026-04-25 17:28 47.31881 9.17629 5966 ft 103 kts 236°
2026-04-25 17:29 47.31458 9.16763 5963 ft 103 kts 238°
2026-04-25 17:29 47.31043 9.15893 5964 ft 104 kts 238°
2026-04-25 17:29 47.30638 9.15046 5968 ft 97 kts 237°
2026-04-25 17:29 47.30236 9.14225 5967 ft 99 kts 236°
2026-04-25 17:30 47.29835 9.13405 5973 ft 102 kts 237°
2026-04-25 17:30 47.29412 9.12541 5972 ft 105 kts 237°
2026-04-25 17:30 47.28987 9.11659 5977 ft 107 kts 238°
2026-04-25 17:30 47.28543 9.10736 5971 ft 113 kts 237°
2026-04-25 17:31 47.28083 9.09787 5969 ft 114 kts 237°
2026-04-25 17:31 47.27630 9.08835 5969 ft 113 kts 237°
2026-04-25 17:31 47.27180 9.07875 5976 ft 115 kts 237°
2026-04-25 17:31 47.26721 9.06895 5977 ft 118 kts 238°
2026-04-25 17:32 47.26252 9.05888 5977 ft 120 kts 238°
2026-04-25 17:32 47.25811 9.04942 5970 ft 119 kts 238°
2026-04-25 17:32 47.25348 9.03959 5968 ft 117 kts 237°
2026-04-25 17:32 47.24886 9.02982 5968 ft 115 kts 237°
2026-04-25 17:33 47.24441 9.02043 5966 ft 109 kts 237°
2026-04-25 17:33 47.24136 9.01063 5961 ft 104 kts 273°
2026-04-25 17:33 47.24278 9.00039 5967 ft 101 kts 282°
2026-04-25 17:33 47.24416 8.99044 5968 ft 100 kts 282°
2026-04-25 17:34 47.24559 8.98043 5961 ft 99 kts 282°
2026-04-25 17:34 47.24702 8.97056 5966 ft 99 kts 283°
2026-04-25 17:34 47.24844 8.96065 5965 ft 99 kts 282°
2026-04-25 17:34 47.24985 8.95087 5960 ft 97 kts 282°
2026-04-25 17:35 47.25124 8.94118 5957 ft 95 kts 282°
2026-04-25 17:35 47.25264 8.93181 5958 ft 94 kts 282°
2026-04-25 17:35 47.25397 8.92225 5963 ft 97 kts 282°
2026-04-25 17:35 47.25536 8.91241 5959 ft 99 kts 282°
2026-04-25 17:36 47.25675 8.90253 5965 ft 99 kts 282°
2026-04-25 17:36 47.25821 8.89243 5965 ft 102 kts 282°
2026-04-25 17:36 47.25966 8.88221 5965 ft 102 kts 282°
2026-04-25 17:36 47.26112 8.87207 5964 ft 103 kts 282°
2026-04-25 17:37 47.26263 8.86163 5966 ft 105 kts 282°
2026-04-25 17:37 47.26416 8.85109 5966 ft 106 kts 282°
2026-04-25 17:37 47.26570 8.84047 5964 ft 106 kts 282°
2026-04-25 17:37 47.26721 8.82981 5968 ft 107 kts 282°
2026-04-25 17:38 47.26877 8.81910 5965 ft 107 kts 282°
2026-04-25 17:38 47.26930 8.81547 5966 ft 107 kts 283°
2026-04-25 17:38 47.27192 8.79754 5965 ft 108 kts 282°
2026-04-25 17:38 47.27346 8.78674 5968 ft 108 kts 282°
2026-04-25 17:39 47.27500 8.77597 5962 ft 108 kts 282°
2026-04-25 17:39 47.27653 8.76518 5965 ft 108 kts 282°
2026-04-25 17:39 47.27805 8.75439 5966 ft 108 kts 282°
2026-04-25 17:39 47.27963 8.74362 5965 ft 107 kts 282°
2026-04-25 17:40 47.28112 8.73303 5964 ft 106 kts 282°
2026-04-25 17:40 47.28265 8.72241 5964 ft 106 kts 282°
2026-04-25 17:40 47.28416 8.71184 5964 ft 105 kts 282°
2026-04-25 17:40 47.28563 8.70133 5961 ft 104 kts 282°
2026-04-25 17:41 47.28661 8.69449 5962 ft 103 kts 282°
2026-04-25 17:41 47.28802 8.68424 5961 ft 101 kts 282°
2026-04-25 17:41 47.28947 8.67412 5956 ft 100 kts 282°
2026-04-25 17:41 47.29088 8.66413 5960 ft 100 kts 282°
2026-04-25 17:42 47.29231 8.65404 5962 ft 102 kts 282°
2026-04-25 17:42 47.29380 8.64370 5967 ft 104 kts 282°
2026-04-25 17:42 47.29527 8.63314 5969 ft 106 kts 282°
2026-04-25 17:42 47.29682 8.62236 5962 ft 109 kts 282°
2026-04-25 17:43 47.29840 8.61140 5965 ft 110 kts 282°
2026-04-25 17:43 47.29999 8.60042 5965 ft 113 kts 282°
2026-04-25 17:43 47.30161 8.58923 5963 ft 110 kts 282°
2026-04-25 17:43 47.30320 8.57831 5958 ft 108 kts 282°
2026-04-25 17:44 47.30475 8.56761 5955 ft 106 kts 282°
2026-04-25 17:44 47.30752 8.55769 5956 ft 105 kts 297°
2026-04-25 17:44 47.31081 8.54816 5958 ft 104 kts 296°